Lander, WY

7:29 PM MST on February 25, 2017 (GMT -0700)
Hunt

Weather History for KLND - March, 2013

Change the Weather History Date:

Monday, March 4, 2013

  Actual Average Record
Temperature  
Mean Temperature 23 °F 31 °F  
Max Temperature 30 °F 43 °F 64 °F (1986)
Min Temperature 16 °F 20 °F -9 °F (1912)
Degree Days  
Heating Degree Days 42 34  
Month to date heating degree days 126 137  
Since 1 July heating degree days 5495 5841  
Cooling Degree Days 0 0  
Month to date cooling degree days 0 0  
Year to date cooling degree days 0 0  
Moisture  
Dew Point 14 °F    
Average Humidity 66    
Maximum Humidity 81    
Minimum Humidity 50    
Precipitation  
Precipitation T in 0.02 in 1.46 in (1938)
Month to date precipitation T 0.10  
Year to date precipitation 1.98 1.09  
Snow  
Snow T in 0.40 in - ()
Month to date snowfall T 1.6  
Since 1 July snowfall 52.2 55.2  
Snow Depth 1.00 in    
Sea Level Pressure  
Sea Level Pressure 30.07 in    
Wind  
Wind Speed 7 mph (ESE)    
Max Wind Speed 21 mph    
Max Gust Speed 24 mph    
Visibility 10 miles    
Events      
T = Trace of Precipitation, MM = Missing Value Source: NWS Daily Summary

Daily Weather History Graph

Daily Weather History Graph

Search for Another Location

Airport or City:

Trip Planner

Search our weather history database for the weather conditions in past years. The results will help you decide how hot, cold, wet, or windy it might be!

Date:

Astronomy

Mar. 04, 2013 Rise Set
Actual Time 6:45 AM MST 6:08 PM MST
Civil Twilight 6:16 AM MST 6:36 PM MST
Nautical Twilight 5:44 AM MST 7:09 PM MST
Astronomical Twilight 5:11 AM MST 7:42 PM MST
Moon 1:04 AM MST (3/4) 10:47 AM MST (3/4)
Length of Visible Light 12h 19m
Length of Day
11h 23m
Waning Gibbous, 51% of the Moon is Illuminated
Mar 4
Waning Gibbous
Mar 4
Last Quarter
Mar 11
New
Mar 19
First Quarter
Mar 27
Full

Hourly Weather History & Observations

Time (MST) Temp. Windchill Dew Point Humidity Pressure Visibility Wind Dir Wind Speed Gust Speed Precip Events Conditions
12:11 AM 24.8 °F 20.5 °F 17.6 °F 74% 29.81 in 10.0 mi Variable 3.5 mph - N/A   Mostly Cloudy
12:48 AM 24.8 °F 15.3 °F 19.4 °F 80% 29.80 in 10.0 mi SE 9.2 mph - N/A   Scattered Clouds
12:53 AM 24.1 °F 15.2 °F 19.0 °F 81% 29.81 in 10.0 mi SSE 8.1 mph - N/A   Partly Cloudy
1:53 AM 24.1 °F 14.4 °F 18.0 °F 77% 29.83 in 10.0 mi SE 9.2 mph - N/A   Mostly Cloudy
2:33 AM 24.8 °F 17.9 °F 15.8 °F 69% 29.82 in 10.0 mi SSE 5.8 mph - N/A   Overcast
2:53 AM 25.0 °F 18.1 °F 15.1 °F 66% 29.83 in 10.0 mi SSE 5.8 mph - N/A   Overcast
3:53 AM 24.1 °F 19.7 °F 14.0 °F 65% 29.83 in 10.0 mi ESE 3.5 mph - N/A   Overcast
4:53 AM 23.0 °F - 16.0 °F 74% 29.86 in 10.0 mi Calm Calm - N/A   Overcast
5:53 AM 24.1 °F 17.0 °F 16.0 °F 71% 29.89 in 5.0 mi SW 5.8 mph - N/A   Haze
6:53 AM 23.0 °F 15.8 °F 16.0 °F 74% 29.91 in 10.0 mi West 5.8 mph - 0.00 in   Mostly Cloudy
7:53 AM 21.0 °F 5.7 °F 15.1 °F 78% 29.99 in 10.0 mi NNE 19.6 mph - N/A   Partly Cloudy
8:41 AM 21.2 °F 10.9 °F 14.0 °F 74% 29.98 in 10.0 mi ENE 9.2 mph - N/A   Mostly Cloudy
8:51 AM 21.2 °F 14.9 °F 12.2 °F 68% 29.98 in 10.0 mi NNE 4.6 mph - N/A   Scattered Clouds
8:53 AM 21.9 °F 14.5 °F 12.9 °F 68% 30.04 in 10.0 mi NNE 5.8 mph - N/A   Partly Cloudy
9:53 AM 23.0 °F 14.7 °F 10.0 °F 58% 30.10 in 10.0 mi ENE 6.9 mph - N/A   Overcast
10:53 AM 26.1 °F 17.6 °F 10.9 °F 53% 30.14 in 10.0 mi East 8.1 mph - N/A   Partly Cloudy
11:53 AM 27.0 °F 18.7 °F 10.9 °F 51% 30.14 in 10.0 mi ESE 8.1 mph - N/A   Clear
12:53 PM 28.9 °F 17.7 °F 16.0 °F 58% 30.15 in 10.0 mi East 15.0 mph - N/A   Mostly Cloudy
1:53 PM 28.0 °F 20.8 °F 12.9 °F 53% 30.17 in 10.0 mi Variable 6.9 mph - N/A   Clear
2:53 PM 26.1 °F 17.6 °F 15.1 °F 63% 30.19 in 10.0 mi East 8.1 mph - N/A   Clear
3:53 PM 28.0 °F 21.7 °F 12.9 °F 53% 30.21 in 10.0 mi ESE 5.8 mph - N/A   Partly Cloudy
4:53 PM 25.0 °F 19.3 °F 12.0 °F 58% 30.25 in 10.0 mi ESE 4.6 mph - N/A   Scattered Clouds
5:53 PM 24.1 °F 18.2 °F 12.0 °F 60% 30.27 in 10.0 mi East 4.6 mph - N/A   Mostly Cloudy
6:53 PM 24.1 °F 17.0 °F 12.9 °F 62% 30.30 in 10.0 mi SSE 5.8 mph - N/A   Overcast
7:53 PM 21.9 °F 12.5 °F 12.0 °F 66% 30.32 in 10.0 mi ESE 8.1 mph - N/A   Partly Cloudy
8:53 PM 19.0 °F 10.0 °F 10.9 °F 71% 30.34 in 10.0 mi ESE 6.9 mph - N/A   Clear
9:53 PM 18.0 °F 11.1 °F 9.0 °F 68% 30.34 in 10.0 mi SW 4.6 mph - N/A   Clear
10:53 PM 16.0 °F 7.4 °F 9.0 °F 74% 30.35 in 10.0 mi WNW 5.8 mph - N/A   Clear
11:53 PM 16.0 °F 5.3 °F 7.0 °F 68% 30.34 in 10.0 mi West 8.1 mph - N/A   Clear